Preview of NWS' New Version of Forecast
This preview is not operational and should not be used for support decisions.

Regional Weather Roundup (RWR)

Issued by National Weather Service (NWS)

                            
064 
ASUS42 KFFC 181310
RWRGA 
WEATHER ROUNDUP FOR GEORGIA
NATIONAL WEATHER SERVICE PEACHTREE CITY GA
900 AM EDT MON JUN 18 2018

NOTE: "FAIR" INDICATES FEW OR NO CLOUDS BELOW 12,000 FEET WITH NO
SIGNIFICANT WEATHER AND/OR OBSTRUCTIONS TO VISIBILITY. 

* = USE WITH CAUTION. THE STATIONS MARKED WITH AN ASTERISK MAY NOT
REPORT WEATHER SUCH AS PRECIPITATION, FOG, OR THUNDER AND ARE NOT 
QUALITY CONTROLLED BY NWS.

THE REMARK "TC" DENOTES TEMPERATURE READING IN DEGREES CELSIUS.

GAZ001>058-181400-
NORTH GEORGIA
  
CITY           SKY/WX    TMP DP  RH WIND       PRES   REMARKS
ATLANTA        FAIR      78  68  71 NW5       30.18R                  
ATHENS         FAIR      79  74  84 CALM      30.16R                  
CHAMBLEE       FAIR      78  67  68 NW5       30.18R                  
PEACHTREE CITY FAIR      78  69  73 NW3       30.18R                  
ROME           FAIR      74  71  91 CALM      30.19R                  
WEST ATLANTA   FAIR      76  71  85 N3        30.18R                  
GAINESVILLE    FAIR      78  72  81 W3        30.21R                  
CARTERSVILLE   PTSUNNY   72  71  97 CALM      30.19R                  

  
CITY           SKY/WX    TMP DP  RH WIND       PRES   REMARKS
DALTON*        FAIR      72  70  94 CALM      30.20R                  
LAWRENCEVILLE* FAIR      78  72  81 CALM      30.18R                  
KENNESAW*      FAIR      74  69  85 VRB3      30.19R                  
CANTON*        FAIR      77  66  69 CALM      30.20R                  
BLAIRSVILLE*   FOG       67  66  99 CALM      30.25R VSB 1/4          
$$

GAZ059>098-102>109-181400-
CENTRAL GEORGIA
  
CITY           SKY/WX    TMP DP  RH WIND       PRES   REMARKS
AUGUSTA-BUSH   FAIR      79  73  82 CALM      30.14R                  
AUGUSTA-DANIEL FAIR      79  74  84 CALM      30.15S                  
COLUMBUS       FAIR      76  71  85 W6        30.16R                  
MACON          FAIR      79  73  82 CALM      30.15R                  

  
CITY           SKY/WX    TMP DP  RH WIND       PRES   REMARKS
LAGRANGE*      FAIR      77  72  84 CALM      30.18R                  
SYLVANIA*      FAIR      80  75  85 S3        30.15S                  
MILLEDGEVILLE* FAIR      79  75  89 CALM      30.15S                  
$$

GAZ099>101-110>166-181400-
SOUTH GEORGIA
  
CITY           SKY/WX    TMP DP  RH WIND       PRES   REMARKS
SAVANNAH       FAIR      81  76  84 SW7       30.15R                  
VALDOSTA       FAIR      78  73  84 CALM      30.16R                  
ALMA           FAIR      81  73  76 CALM      30.15R                  
ST SIMONS      FAIR      81  80  97 SW6       30.14S HX  91           
ALBANY         FAIR      80  74  81 CALM      30.18R                  
BRUNSWICK      FAIR      82  73  74 S3        30.15S                  

  
CITY           SKY/WX    TMP DP  RH WIND       PRES   REMARKS
BAINBRIDGE*    FAIR      81  72  74 N3        30.17R                  
MOULTRIE*      FAIR      79  72  78 CALM      30.17S                  
VIDALIA*       FAIR      79  70  73 CALM      30.15S                  
WAYCROSS*      FAIR      81  77  89 CALM      30.15S                  
DOUGLAS*       FAIR      77  73  88 CALM      30.17R                  
$$